Voltar ao catálogo

STARLINK-32015

AtivoComunicaçõesVLEO
NORAD 60111·PAYLOAD·🇺🇸 United States

Lançado Jun 23, 2024 de Cape Canaveral Space Force Station

Loading…

Próximas Passagens (próximas 24 horas)

TLE

AtualizadoSource: CelesTrak SupGP

Época: Sep 15, 2026, 02:01 UTC

1 60111C 24117W   26258.08451389 -.00033150  00000+0 -97930-3 0  2587
2 60111  53.1564 234.8303 0001386  97.3018 129.0987 15.34410762    14

Acompanhe STARLINK-32015 em tempo real com AllMySat

Download on the App Store